LEMUR-2-SMITA-SHARAD

Last updated on Wed Feb 14 2018 16:20:28 GMT+0000 (Greenwich Mean Time)

1 41993U 17008AX 18045.44450270 .00001387 00000-0 61635-4 0 9990 2 41993 97.4648 110.7936 0009323 72.7610 287.4646 15.23194047 54724
UTC large
Height (km)
Speed (km/s)
/
Latitude / Longitude
Inclination (degrees)
Orbital Period (minutes)
Azimuth
Elevation
Range (km)
Doppler Factor

Next 0 passes for location: London (51.5072 / 0.1276)

Sorry there are no passes over London.